Flagstaff, Arizona, United States (86001)
Lat: 35.20N, Lon: 111.65W
Wx Zone: AZZ015
Local Info
Past Weather Observations for Monday, December 15, 2014

NOTE: This archive is for the closest National Weather Service station to Flagstaff. Information may differ from the station used for current weather conditions.

Click here for Long-term Archive

Time Weather Temperature Dewpoint Humidity Pressure Winds Precip Visibility
23:57
Clear
28°F / -2°C 25°F / -4°C 86% 30.12 in
(1020 mb)
NE 3.5 mph
(NE 6 kph)
- 10SM
22:57
Clear
28°F / -2°C 25°F / -4°C 86% 30.15 in
(1021 mb)
NE 4.6 mph
(NE 7 kph)
- 10SM
21:57
Clear
30°F / -1°C 25°F / -4°C 80% 30.15 in
(1021 mb)
NE 4.6 mph
(NE 7 kph)
- 10SM
20:57
Clear
30°F / -1°C 25°F / -4°C 80% 30.15 in
(1021 mb)
ENE 5.8 mph
(ENE 9 kph)
- 10SM
19:57
Clear
30°F / -1°C 25°F / -4°C 80% 30.15 in
(1021 mb)
NE 6.9 mph
(NE 11 kph)
- 10SM
18:57
Clear
32°F / 0°C 27°F / -3°C 80% 30.15 in
(1021 mb)
NE 6.9 mph
(NE 11 kph)
- 10SM
17:57
Mostly Cloudy
34°F / 1°C 27°F / -3°C 75% 30.12 in
(1020 mb)
ENE 8.1 mph
(ENE 13 kph)
- 10SM
16:57
Clear
36°F / 2°C 27°F / -3°C 70% 30.15 in
(1021 mb)
ENE 6.9 mph
(ENE 11 kph)
- 10SM
15:57
Clear
39°F / 4°C 27°F / -3°C 61% 30.12 in
(1020 mb)
ENE 8.1 mph
(ENE 13 kph)
- 10SM
14:57
Clear
41°F / 5°C 27°F / -3°C 57% 30.12 in
(1020 mb)
E 8.1 mph
(E 13 kph)
- 10SM
13:57
Clear
41°F / 5°C 21°F / -6°C 45% 30.12 in
(1020 mb)
ENE 6.9 mph
(ENE 11 kph)
- 10SM
12:57
Clear
43°F / 6°C 19°F / -7°C 39% 30.15 in
(1021 mb)
ENE 6.9 mph
(ENE 11 kph)
- 10SM
11:57
Clear
39°F / 4°C 21°F / -6°C 48% 30.18 in
(1022 mb)
NE 6.9 mph
(NE 11 kph)
- 10SM
10:57
Clear
37°F / 3°C 23°F / -5°C 56% 30.18 in
(1022 mb)
Variable 4.6 mph
(Variable 7 kph)
- 10SM
09:57
Clear
32°F / 0°C 25°F / -4°C 75% 30.18 in
(1022 mb)
NE 5.8 mph
(NE 9 kph)
- 10SM
08:57
Clear
27°F / -3°C 21°F / -6°C 80% 30.18 in
(1022 mb)
NE 3.5 mph
(NE 6 kph)
- 10SM
07:57
Clear
19°F / -7°C 16°F / -9°C 86% 30.15 in
(1021 mb)
Calm - 10SM
06:57
Clear
19°F / -7°C 16°F / -9°C 86% 30.15 in
(1021 mb)
NE 3.5 mph
(NE 6 kph)
- 10SM
05:57
Clear
19°F / -7°C 16°F / -9°C 86% 30.12 in
(1020 mb)
Calm - 10SM
04:57
Clear
19°F / -7°C 16°F / -9°C 86% 30.12 in
(1020 mb)
NE 3.5 mph
(NE 6 kph)
- 10SM
03:57
Clear
19°F / -7°C 16°F / -9°C 86% 30.12 in
(1020 mb)
Calm - 10SM
02:57
Clear
19°F / -7°C 18°F / -8°C 93% 30.12 in
(1020 mb)
NE 3.5 mph
(NE 6 kph)
- 10SM
01:57
Clear
21°F / -6°C 18°F / -8°C 86% 30.12 in
(1020 mb)
Calm - 10SM
00:57
Clear
21°F / -6°C 19°F / -7°C 93% 30.12 in
(1020 mb)
Calm - 10SM
Time Weather Temperature Dewpoint Humidity Pressure Winds Precip Visibility


Weather for websites

WeatherForYou.com, LLC is not responsible for any damages or problems caused by this service. Current weather conditions are obtained from the closest station including government and personal stations which may have varying degrees of accuracy. Weather forecasts are derived from the NOAA NDFD. Like all things, this site belongs to Jesus Christ... He just trusts me to maintain it. If you have any questions or comments email webmaster@weatherforyou.com

Copyright © 2014, WeatherForYou.com LLC. All rights reserved.